This demonstration page uses our WeatherBlox Daily Observations layout. Learn more.

Left ArrowRight Arrow

40.92945, -100.16068

Hourly Observations for September 25, 2017

Temp ( °F °C ) Dew Point ( °F °C ) Humidity (%) Winds ( mph kmh ) Pressure ( in mb ) Visibility ( mi km ) Precip ( " mm )
12:15 am 00:15 Cloudy with Nearby Thunderstorms 54 12.3 52 10.9 91 91 NNE 13 20 30.00 1016 10 16 0.00 0.00
12:35 am 00:35 Cloudy 54 12.2 51 10.8 91 91 NE 8 13 30.00 1016 10 16 0.00 0.00
12:55 am 00:55 Cloudy with Rain 54 12 51 10.6 91 91 NE 10 17 30.00 1016 10 16 0.01 0.25
1:15 am 01:15 Cloudy with Nearby Thunderstorms 53 11.7 51 10.3 91 91 NNE 9 15 30.00 1016 5 8 0.10 2.54
1:35 am 01:35 Cloudy with Light Rain 53 11.6 51 10.3 92 92 N 13 20 29.97 1015 10 16 0.12 3.05
1:55 am 01:55 Cloudy with Nearby Thunderstorms 53 11.5 50 10.1 91 91 N 7 11 30.00 1016 10 16 0.12 3.05
2:15 am 02:15 Cloudy 53 11.5 50 10.1 91 91 NNE 12 19 30.00 1016 10 16 0.00 0.00
2:35 am 02:35 Cloudy with Strong Thunderstorms 53 11.5 50 9.9 90 90 NE 16 26 30.00 1016 7 11 0.05 1.27
2:55 am 02:55 Cloudy with Nearby Thunderstorms 53 11.5 50 10 91 91 ENE 17 28 29.97 1015 7 11 0.13 3.30
3:15 am 03:15 Cloudy with Thunderstorms 52 11.1 50 10 93 93 ENE 12 19 30.00 1016 10 16 0.04 1.02
3:35 am 03:35 Cloudy with Thunderstorms 52 11.1 50 10 93 93 ENE 15 24 29.97 1015 10 16 0.06 1.52
3:55 am 03:55 Cloudy 52 11.1 50 10.1 94 94 NNE 9 15 29.97 1015 10 16 0.06 1.52
4:15 am 04:15 Cloudy 52 11.1 50 10.1 94 94 N 8 13 30.00 1016 10 16 0.00 0.00
4:35 am 04:35 Cloudy 52 11.1 50 10.1 94 94 NNW 12 19 30.00 1016 10 16 0.00 0.00
4:55 am 04:55 Cloudy with Light Rain 52 11.2 50 10.1 93 93 N 9 15 30.00 1016 10 16 0.00 0.00
5:15 am 05:15 Cloudy with Heavy Rain 52 11 50 10 94 94 N 9 15 30.00 1016 7 11 0.04 1.02
5:35 am 05:35 Cloudy with Rain 51 10.8 50 9.8 94 94 NNE 10 17 30.00 1016 10 16 0.06 1.52
5:55 am 05:55 Cloudy with Nearby Thunderstorms 51 10.8 50 9.8 94 94 N 7 11 30.00 1016 10 16 0.06 1.52
6:15 am 06:15 Cloudy with Nearby Thunderstorms 51 10.8 50 9.8 94 94 N 10 17 30.00 1016 10 16 0.00 0.00
6:35 am 06:35 Cloudy 51 10.7 49 9.6 93 93 NNE 9 15 30.00 1016 10 16 0.00 0.00
6:55 am 06:55 Cloudy 51 10.7 49 9.6 93 93 N 9 15 30.03 1017 10 16 0.00 0.00
7:15 am 07:15 Cloudy 51 10.7 49 9.6 93 93 N 7 11 30.03 1017 10 16 0.00 0.00
7:35 am 07:35 Cloudy 51 10.8 49 9.6 92 92 N 12 19 30.03 1017 10 16 0.00 0.00
7:55 am 07:55 Cloudy 51 10.7 49 9.3 91 91 N 13 20 30.03 1017 10 16 0.00 0.00
8:15 am 08:15 Cloudy with Nearby Thunderstorms 51 10.7 48 9.1 90 90 N 10 17 30.00 1016 10 16 0.00 0.00
8:35 am 08:35 Cloudy 51 10.7 48 9 89 89 N 9 15 30.03 1017 10 16 0.00 0.00
8:55 am 08:55 Cloudy 51 10.7 48 9 89 89 N 12 19 30.03 1017 10 16 0.00 0.00
9:15 am 09:15 Cloudy with Mist and Fog 51 10.5 48 9 91 91 NNE 10 17 30.03 1017 3 5 0.00 0.00
9:35 am 09:35 Cloudy 51 10.7 48 9 89 89 N 6 9 30.03 1017 10 16 0.00 0.00
9:55 am 09:55 Cloudy 51 10.6 48 9.1 91 91 N 10 17 30.03 1017 10 16 0.00 0.00
10:15 am 10:15 Cloudy with Mist and Fog 51 10.6 49 9.2 91 91 N 12 19 30.03 1017 3 5 0.00 0.00
10:35 am 10:35 Cloudy with Rain 51 10.5 49 9.2 92 92 N 14 22 30.03 1017 5 8 0.02 0.51
10:55 am 10:55 Cloudy with Drizzle 51 10.5 48 9.1 91 91 N 13 20 30.03 1017 10 16 0.04 1.02
11:15 am 11:15 Cloudy with Rain 51 10.6 48 9 90 90 N 13 20 30.03 1017 10 16 0.00 0.00
11:35 am 11:35 Cloudy with Drizzle 51 10.8 48 9 89 89 NNE 14 22 30.03 1017 10 16 0.00 0.00
11:55 am 11:55 Cloudy with Drizzle 52 11 48 9 88 88 NNE 13 20 30.03 1017 10 16 0.00 0.00
12:15 pm 12:15 Cloudy with Light Rain 52 11.3 49 9.2 87 87 NNE 13 20 30.03 1017 10 16 0.00 0.00
12:35 pm 12:35 Cloudy 53 11.5 49 9.4 87 87 NNE 13 20 30.00 1016 10 16 0.00 0.00
12:55 pm 12:55 Cloudy with Light Rain 53 11.8 49 9.3 85 85 N 14 22 30.00 1016 10 16 0.00 0.00
1:15 pm 13:15 Cloudy 54 12 49 9.5 85 85 N 14 22 30.03 1017 10 16 0.00 0.00
1:35 pm 13:35 Cloudy 54 12.1 49 9.6 85 85 NNE 13 20 30.03 1017 10 16 0.00 0.00
1:55 pm 13:55 Cloudy 54 12.1 49 9.4 84 84 NNE 10 17 30.03 1017 10 16 0.00 0.00
2:15 pm 14:15 Cloudy 54 12.3 49 9.5 83 83 NNE 9 15 30.03 1017 10 16 0.00 0.00
2:35 pm 14:35 Cloudy 54 12.1 49 9.2 83 83 NE 9 15 30.03 1017 10 16 0.00 0.00
2:55 pm 14:55 Cloudy 54 12.4 49 9.4 82 82 NNE 12 19 30.03 1017 10 16 0.00 0.00
3:15 pm 15:15 Cloudy 54 12.3 49 9.5 83 83 NNE 10 17 30.03 1017 10 16 0.00 0.00
3:35 pm 15:35 Cloudy 54 12 49 9.4 84 84 NNE 10 17 30.03 1017 10 16 0.00 0.00
3:55 pm 15:55 Cloudy 54 12 49 9.3 84 84 NNE 9 15 30.03 1017 10 16 0.00 0.00
4:15 pm 16:15 Cloudy 54 12.2 49 9.6 84 84 NNE 10 17 30.03 1017 10 16 0.00 0.00
4:35 pm 16:35 Cloudy 53 11.7 48 9 84 84 N 9 15 30.03 1017 10 16 0.00 0.00
4:55 pm 16:55 Cloudy 53 11.8 49 9.2 84 84 N 12 19 30.00 1016 10 16 0.00 0.00
5:15 pm 17:15 Cloudy with Rain 53 11.6 49 9.3 86 86 N 12 19 30.00 1016 10 16 0.00 0.00
5:35 pm 17:35 Cloudy 52 11.3 49 9.5 89 89 N 13 20 30.03 1017 10 16 0.00 0.00
5:55 pm 17:55 Cloudy 53 11.5 49 9.5 88 88 N 10 17 30.03 1017 10 16 0.00 0.00
6:15 pm 18:15 Cloudy 53 11.5 49 9.4 87 87 N 8 13 30.03 1017 10 16 0.00 0.00
6:35 pm 18:35 Cloudy 52 11.1 48 9.1 88 88 N 10 17 30.03 1017 10 16 0.00 0.00
6:55 pm 18:55 Cloudy 52 11 48 9 88 88 N 10 17 30.03 1017 10 16 0.00 0.00
7:15 pm 19:15 Cloudy with Drizzle 51 10.7 48 9 89 89 N 13 20 30.03 1017 5 8 0.00 0.00
7:35 pm 19:35 Cloudy 51 10.5 48 9.1 91 91 N 7 11 30.03 1017 7 11 0.00 0.00
7:55 pm 19:55 Cloudy 51 10.5 48 9 91 91 N 8 13 30.03 1017 7 11 0.00 0.00
8:15 pm 20:15 Cloudy 51 10.5 48 9.1 91 91 N 8 13 30.03 1017 7 11 0.00 0.00
8:35 pm 20:35 Cloudy 51 10.3 48 9 92 92 NNE 6 9 30.03 1017 7 11 0.01 0.25
8:55 pm 20:55 Cloudy 51 10.3 48 8.7 90 90 N 8 13 30.03 1017 10 16 0.01 0.25
9:15 pm 21:15 Cloudy with Drizzle 50 10.2 48 8.9 92 92 N 8 13 30.06 1018 5 8 0.00 0.00
9:35 pm 21:35 Cloudy with Rain 50 10.1 48 9 93 93 NNE 10 17 30.06 1018 5 8 0.00 0.00
9:55 pm 21:55 Cloudy 50 10 48 8.8 92 92 N 8 13 30.06 1018 7 11 0.00 0.00
10:15 pm 22:15 Cloudy 50 10.1 48 8.8 92 92 NNW 6 9 30.09 1019 10 16 0.00 0.00
10:35 pm 22:35 Cloudy with Drizzle 50 10.2 48 8.9 92 92 N 6 9 30.09 1019 5 8 0.00 0.00
10:55 pm 22:55 Cloudy with Rain 50 10 48 9 94 94 N 3 6 30.09 1019 4 6 0.02 0.51
11:15 pm 23:15 Cloudy with Heavy Rain 50 10 48 9 94 94 NE 3 6 30.09 1019 5 8 0.06 1.52
11:35 pm 23:35 Cloudy with Light Rain 50 10 48 8.8 92 92 NNE 8 13 30.09 1019 10 16 0.09 2.29
11:55 pm 23:55 Cloudy with Light Rain 50 9.9 48 8.8 93 93 N 5 7 30.09 1019 10 16 0.12 3.05

Powered by AerisWeather